Regional Weather Roundup
Issued by NWS

Home | Current Version | Previous Version | Graphics & Text | Print | Product List | Glossary On
Versions: 1 2 3 4 5 6 7 8 9 10 11 12 13 14 15 16 17 18 19 20 21 22 23 24 25 26 27 28 29 30 31 32 33 34 35 36 37 38 39 40 41 42 43 44 45 46 47 48 49 50
000
ASUS45 KBOI 020510
RWRID

IDAHO REGIONAL WEATHER ROUNDUP
NATIONAL WEATHER SERVICE BOISE ID
1100 PM MDT TUE SEP 01 2015

NOTE: "FAIR" INDICATES FEW OR NO CLOUDS BELOW 12000 FEET
WITH NO SIGNIFICANT WEATHER AND/OR OBSTRUCTIONS TO VISIBILITY

IDZ012-014-020600-
SOUTHWEST IDAHO


CITY           SKY/WX    TMP DP  RH WIND       PRES   REMARKS
BOISE          CLEAR     72  40  31 S5        29.73F
CALDWELL         N/A     66  43  42 CALM      29.74S
MOUNTAIN HOME  CLEAR     70  36  28 NW3       29.76S
$$

IDZ016-017-020600-
SOUTHCENTRAL IDAHO


CITY           SKY/WX    TMP DP  RH WIND       PRES   REMARKS
BURLEY         CLEAR     60  46  59 CALM      29.83S
JEROME         PTCLDY    66  37  34 NW5       29.85S
TWIN FALLS     PTCLDY    71  33  24 W6        29.85S
$$

IDZ019>023-020600-
SOUTHEAST IDAHO


CITY           SKY/WX    TMP DP  RH WIND       PRES   REMARKS
IDAHO FALLS    CLEAR     59  44  57 CALM      29.90F
POCATELLO      CLEAR     74  35  24 S10       29.87F
REXBURG        CLEAR     68  33  27 CALM      29.91F
$$

IDZ006-010-011-018-031-032-020600-
CENTRAL IDAHO MOUNTAINS


CITY           SKY/WX    TMP DP  RH WIND       PRES   REMARKS
MCCALL         PTCLDY    56  35  45 N3        29.87F
HAILEY         CLEAR     63  36  36 W9        29.97R
STANLEY          N/A     50  27  40 S3        30.02S
SALMON         CLEAR     68  27  21 CALM      29.80S
CHALLIS        CLEAR     62  27  26 CALM      29.90R
$$

IDZ002-004-006-007-026-020600-
NORTHERN IDAHO


CITY           SKY/WX    TMP DP  RH WIND       PRES   REMARKS
LEWISTON       MOCLDY    72  36  26 CALM      29.73S
LOWELL           N/A     61  55  81 CALM      29.75R
COEUR D`ALENE  CLOUDY    64  43  45 SW7       29.75F
MULLAN PASS    CLOUDY    53  30  41 VRB5      29.90F
$$


USA.gov is the U.S. government's official web portal to all federal, state and local government web resources and services.